Weather History for KBVO - January, 2013

Change the Weather History Date:

Tuesday, January 1, 2013

  Actual Average Record
Temperature  
Mean Temperature 24 °F -  
Max Temperature 35 °F 44 °F 32 °F (2015)
Min Temperature 14 °F 21 °F 19 °F (2015)
Degree Days  
Heating Degree Days 40    
Moisture  
Dew Point 24 °F    
Average Humidity 91    
Maximum Humidity 100    
Minimum Humidity 81    
Precipitation  
Precipitation 0.00 in - - ()
Sea Level Pressure  
Sea Level Pressure 30.25 in    
Wind  
Wind Speed 7 mph (North)    
Max Wind Speed 15 mph    
Max Gust Speed 17 mph    
Visibility 7 miles    
Events Snow    
Averages and records for this station are not official NWS values.
T = Trace of Precipitation, MM = Missing Value Source: NWS Daily Summary

Daily Weather History Graph

Daily Weather History Graph

Search for Another Location

Airport or City:

Trip Planner

Search our weather history database for the weather conditions in past years. The results will help you decide how hot, cold, wet, or windy it might be!

Date:

Astronomy

Jan. 01, 2013 Rise Set
Actual Time 7:36 AM CST 5:19 PM CST
Civil Twilight 7:08 AM CST 5:47 PM CST
Nautical Twilight 6:35 AM CST 6:20 PM CST
Astronomical Twilight 6:04 AM CST 6:51 PM CST
Moon 9:43 PM CST (1/1) 9:56 AM CST (1/1)
Length of Visible Light 10h 39m
Length of Day
9h 42m
Waning Gibbous, 83% of the Moon is Illuminated
Jan 1
Waning Gibbous
Jan 4
Last Quarter
Jan 11
New
Jan 18
First Quarter
Jan 26
Full

Hourly Weather History & Observations

Time (CST) Temp. Windchill Dew Point Humidity Pressure Visibility Wind Dir Wind Speed Gust Speed Precip Events Conditions
12:53 AM 35.1 °F 29.3 °F 34.0 °F 96% 30.12 in 5.0 mi North 6.9 mph - N/A   Overcast
1:53 AM 32.0 °F 22.1 °F 32.0 °F 100% 30.11 in 4.0 mi North 13.8 mph - N/A   Overcast
2:00 AM 32.0 °F 21.6 °F 30.2 °F 93% 30.11 in 4.0 mi North 15.0 mph - N/A   Overcast
2:53 AM 30.9 °F 22.2 °F 30.9 °F 100% 30.13 in 4.0 mi NNE 10.4 mph - N/A   Overcast
3:53 AM 30.0 °F 25.2 °F 28.9 °F 96% 30.15 in 5.0 mi Variable 4.6 mph - N/A   Overcast
4:53 AM 28.9 °F 22.8 °F 28.0 °F 96% 30.16 in 5.0 mi North 5.8 mph - N/A   Overcast
5:36 AM 28.4 °F 20.4 °F 26.6 °F 93% 30.17 in 5.0 mi North 8.1 mph - N/A   Overcast
5:53 AM 28.9 °F 21.9 °F 27.0 °F 92% 30.19 in 6.0 mi North 6.9 mph - N/A   Overcast
7:53 AM 27.0 °F 18.7 °F 26.1 °F 96% 30.21 in 4.0 mi North 8.1 mph - N/A   Overcast
8:53 AM 27.0 °F 20.5 °F 25.0 °F 92% 30.26 in 7.0 mi North 5.8 mph 17.3 mph N/A   Overcast
9:53 AM 27.0 °F 17.3 °F 24.1 °F 89% 30.29 in 8.0 mi North 10.4 mph 17.3 mph N/A   Overcast
10:53 AM 28.0 °F 20.8 °F 25.0 °F 88% 30.30 in 8.0 mi North 6.9 mph - N/A   Overcast
11:48 AM 26.6 °F 17.5 °F 24.8 °F 93% 30.28 in 7.0 mi North 9.2 mph - N/A   Overcast
11:53 AM 27.0 °F 18.7 °F 23.0 °F 85% 30.29 in 7.0 mi North 8.1 mph - N/A   Overcast
12:45 PM 26.6 °F 21.2 °F 24.8 °F 93% 30.28 in 2.5 mi Variable 4.6 mph - 0.00 in Snow Light Snow
12:53 PM 27.0 °F 18.7 °F 24.1 °F 89% 30.28 in 2.5 mi North 8.1 mph - 0.00 in Snow Light Snow
1:03 PM 26.6 °F 19.1 °F 24.8 °F 93% 30.28 in 4.0 mi North 6.9 mph - 0.00 in   Overcast
1:21 PM 26.6 °F 20.0 °F 24.8 °F 93% 30.28 in 3.0 mi North 5.8 mph - 0.00 in Snow Light Snow
1:53 PM 27.0 °F 21.6 °F 24.1 °F 89% 30.29 in 7.0 mi NNW 4.6 mph - 0.00 in   Overcast
2:22 PM 26.6 °F 21.2 °F 23.0 °F 86% 30.28 in 9.0 mi Variable 4.6 mph - N/A   Overcast
2:53 PM 27.0 °F 21.6 °F 23.0 °F 85% 30.29 in 10.0 mi Variable 4.6 mph - N/A   Overcast
3:53 PM 28.0 °F 21.7 °F 23.0 °F 81% 30.28 in 10.0 mi North 5.8 mph - N/A   Overcast
4:53 PM 27.0 °F 21.6 °F 21.9 °F 81% 30.29 in 10.0 mi Variable 4.6 mph - N/A   Mostly Cloudy
5:53 PM 24.1 °F - 21.0 °F 88% 30.31 in 10.0 mi Calm Calm - N/A   Clear
6:53 PM 19.9 °F - 18.0 °F 92% 30.33 in 10.0 mi Calm Calm - N/A   Clear
7:53 PM 19.0 °F - 17.1 °F 92% 30.33 in 10.0 mi Calm Calm - N/A   Clear
8:53 PM 17.1 °F - 15.1 °F 92% 30.32 in 10.0 mi Calm Calm - N/A   Clear
9:53 PM 17.1 °F - 14.0 °F 88% 30.33 in 10.0 mi Calm Calm - N/A   Clear
10:53 PM 14.0 °F - 12.9 °F 95% 30.33 in 10.0 mi Calm Calm - N/A   Clear
11:53 PM 15.1 °F - 12.0 °F 88% 30.34 in 10.0 mi Calm Calm - N/A   Clear